リニア彗星

402P/LINEAR (2021)

English version
Home page
Updated on May 16, 2022

---------------------------------------------------------------------

・ プロフィール

符号 402P/2020 Q3
検出日 2020年8月18日
検出光度 19.5等
検出者 E. Schwab (Egelsbach, Germany)

・ 写真集

・ 軌道要素

Epoch 2022 Jan. 21.0 TT = JDT 2459600.5
T 2021 Dec. 14.55584 TT                                 Rudenko
q   3.9378774            (2000.0)            P               Q
n   0.05303269     Peri.  326.73247     -0.06196473     -0.90087813
a   7.0162808      Node   123.09205     +0.99049125     -0.10847984
e   0.4387515      Incl.   30.85096     +0.12283100     +0.42029837
P  18.6
From 1603 observations 2001 Nov. 22-2022 Feb. 12, mean residual 0".6.
     Nongravitational parameters A1 = -0.94, A2 = -0.6462.

・ 星図

・ 光度変化

        m1 = -5   + 5 logΔ + 30   log r  [    ,-280]  (              〜2021年 3月 9日)
        m1 =  6.0 + 5 logΔ + 12.5 log r  [-280,    ]  (2021年 3月 9日〜              )

---------------------------------------------------------------------

軌道要素はM.P.E.C. 2022-C234に掲載されたものです。
星図はステラナビゲータ Ver.10 (アストロアーツ) で作成したものです。
光度グラフはComet for Windowsで作成したものです。

---------------------------------------------------------------------

Copyright(C) Seiichi Yoshida (comet@aerith.net). All rights reserved.